Time,TemperatureF,DewpointF,PressureIn,WindDirection,WindDirectionDegrees,WindSpeedMPH,WindSpeedGustMPH,Humidity,HourlyPrecipIn,Conditions,Clouds,dailyrainin,SoftwareType,DateUTC
2013-07-12 00:01:00,74.8,66.4,29.96,NNW,328,0.0,1.0,75,0.00,,,0.00,meteohub,2013-07-12 04:01:00,
2013-07-12 00:02:00,74.7,66.2,29.96,NNW,328,0.0,1.0,75,0.00,,,0.00,meteohub,2013-07-12 04:02:00,
2013-07-12 00:07:00,74.5,66.0,29.96,NNW,328,0.0,0.0,75,0.00,,,0.00,meteohub,2013-07-12 04:07:00,
2013-07-12 00:12:00,74.3,66.2,29.96,NNW,328,0.0,0.0,76,0.00,,,0.00,meteohub,2013-07-12 04:12:00,
2013-07-12 00:17:00,73.9,65.8,29.96,NNW,328,0.0,0.0,76,0.00,,,0.00,meteohub,2013-07-12 04:17:00,
2013-07-12 00:22:00,73.9,66.2,29.97,NNW,328,0.0,0.0,77,0.00,,,0.00,meteohub,2013-07-12 04:22:00,
2013-07-12 00:27:00,73.8,66.0,29.97,NNW,328,0.0,1.0,77,0.00,,,0.00,meteohub,2013-07-12 04:27:00,
2013-07-12 00:32:00,73.8,66.4,29.97,NNW,328,0.0,1.0,78,0.00,,,0.00,meteohub,2013-07-12 04:32:00,
2013-07-12 00:37:00,73.6,66.7,29.97,NNW,328,0.0,1.0,79,0.00,,,0.00,meteohub,2013-07-12 04:37:00,
2013-07-12 00:42:00,73.2,66.4,29.96,NNW,328,0.0,0.0,79,0.00,,,0.00,meteohub,2013-07-12 04:42:00,
2013-07-12 00:47:00,73.0,66.2,29.96,NNW,328,0.0,0.0,79,0.00,,,0.00,meteohub,2013-07-12 04:47:00,
2013-07-12 00:52:00,72.9,66.0,29.96,NNW,328,0.0,0.0,79,0.00,,,0.00,meteohub,2013-07-12 04:52:00,
2013-07-12 00:57:00,72.7,66.2,29.96,NNW,328,0.0,0.0,80,0.00,,,0.00,meteohub,2013-07-12 04:57:00,
2013-07-12 01:02:00,72.5,66.0,29.96,NNW,328,0.0,0.0,80,0.00,,,0.00,meteohub,2013-07-12 05:02:00,
2013-07-12 01:07:00,72.3,66.2,29.96,NNW,328,0.0,0.0,81,0.00,,,0.00,meteohub,2013-07-12 05:07:00,
2013-07-12 01:12:00,72.3,66.6,29.96,NNW,328,0.0,0.0,82,0.00,,,0.00,meteohub,2013-07-12 05:12:00,
2013-07-12 01:17:00,72.1,66.4,29.96,NNW,329,0.0,0.0,82,0.00,,,0.00,meteohub,2013-07-12 05:17:00,
2013-07-12 01:22:00,72.0,66.2,29.96,NNW,328,0.0,0.0,82,0.00,,,0.00,meteohub,2013-07-12 05:22:00,
2013-07-12 01:27:00,72.0,66.2,29.97,NNW,328,0.0,0.0,82,0.00,,,0.00,meteohub,2013-07-12 05:27:00,
2013-07-12 01:32:00,72.0,66.6,29.97,NNW,328,0.0,0.0,83,0.00,,,0.00,meteohub,2013-07-12 05:32:00,
2013-07-12 01:37:00,71.8,66.4,29.97,NNW,328,0.0,0.0,83,0.00,,,0.00,meteohub,2013-07-12 05:37:00,
2013-07-12 01:42:00,71.6,66.2,29.97,NNW,328,0.0,0.0,83,0.00,,,0.00,meteohub,2013-07-12 05:42:00,
2013-07-12 01:47:00,71.4,66.0,29.97,NNW,328,0.0,0.0,83,0.00,,,0.00,meteohub,2013-07-12 05:47:00,
2013-07-12 01:52:00,71.4,66.0,29.97,NNW,328,0.0,0.0,83,0.00,,,0.00,meteohub,2013-07-12 05:52:00,
2013-07-12 01:57:00,71.2,65.8,29.97,NNW,329,0.0,0.0,83,0.00,,,0.00,meteohub,2013-07-12 05:57:00,
2013-07-12 01:58:00,71.2,65.8,29.97,NNW,328,0.0,0.0,83,0.00,,,0.00,meteohub,2013-07-12 05:58:00,
2013-07-12 02:03:00,71.2,65.8,29.97,NNW,329,0.0,0.0,83,0.00,,,0.00,meteohub,2013-07-12 06:03:00,
2013-07-12 02:08:00,71.2,65.8,29.97,NNW,328,0.0,0.0,83,0.00,,,0.00,meteohub,2013-07-12 06:08:00,
2013-07-12 02:13:00,71.2,65.5,29.97,NNW,328,0.0,0.0,82,0.00,,,0.00,meteohub,2013-07-12 06:13:00,
2013-07-12 02:18:00,71.2,65.8,29.97,NNW,329,0.0,0.0,83,0.00,,,0.00,meteohub,2013-07-12 06:18:00,
2013-07-12 02:23:00,71.2,65.8,29.97,NNW,329,0.0,0.0,83,0.00,,,0.00,meteohub,2013-07-12 06:23:00,
2013-07-12 02:28:00,71.2,65.8,29.97,NNW,328,0.0,0.0,83,0.00,,,0.00,meteohub,2013-07-12 06:28:00,
2013-07-12 02:33:00,71.2,65.8,29.97,NNW,328,0.0,0.0,83,0.00,,,0.00,meteohub,2013-07-12 06:33:00,
2013-07-12 02:38:00,71.4,65.7,29.97,NNW,328,0.0,0.0,82,0.00,,,0.00,meteohub,2013-07-12 06:38:00,
2013-07-12 02:43:00,71.4,65.7,29.97,NNW,328,0.0,0.0,82,0.00,,,0.00,meteohub,2013-07-12 06:43:00,
2013-07-12 02:48:00,71.4,65.7,29.97,NNW,329,0.0,0.0,82,0.00,,,0.00,meteohub,2013-07-12 06:48:00,
2013-07-12 02:53:00,71.2,65.5,29.97,NNW,328,0.0,0.0,82,0.00,,,0.00,meteohub,2013-07-12 06:53:00,
2013-07-12 02:58:00,71.2,65.5,29.97,NNW,328,0.0,0.0,82,0.00,,,0.00,meteohub,2013-07-12 06:58:00,
2013-07-12 03:03:00,71.1,65.3,29.97,NNW,328,0.0,0.0,82,0.00,,,0.00,meteohub,2013-07-12 07:03:00,
2013-07-12 03:08:00,70.9,65.5,29.97,NNW,329,0.0,0.0,83,0.00,,,0.00,meteohub,2013-07-12 07:08:00,
2013-07-12 03:13:00,70.7,65.3,29.97,NNW,328,0.0,0.0,83,0.00,,,0.00,meteohub,2013-07-12 07:13:00,
2013-07-12 03:18:00,70.5,65.1,29.97,NNW,328,0.0,0.0,83,0.00,,,0.00,meteohub,2013-07-12 07:18:00,
2013-07-12 03:23:00,70.5,65.1,29.98,NNW,328,0.0,0.0,83,0.00,,,0.00,meteohub,2013-07-12 07:23:00,
2013-07-12 03:28:00,70.7,64.9,29.98,NNW,328,0.0,0.0,82,0.00,,,0.00,meteohub,2013-07-12 07:28:00,
2013-07-12 03:33:00,70.7,64.9,29.98,NNW,328,0.0,0.0,82,0.00,,,0.00,meteohub,2013-07-12 07:33:00,
2013-07-12 03:38:00,70.9,65.1,29.98,NNW,329,0.0,0.0,82,0.00,,,0.00,meteohub,2013-07-12 07:38:00,
2013-07-12 03:43:00,70.9,64.8,29.98,NNW,328,0.0,0.0,81,0.00,,,0.00,meteohub,2013-07-12 07:43:00,
2013-07-12 03:48:00,71.1,64.6,29.98,NNW,329,0.0,0.0,80,0.00,,,0.00,meteohub,2013-07-12 07:48:00,
2013-07-12 03:53:00,71.4,64.9,29.98,NNW,330,0.0,0.0,80,0.00,,,0.00,meteohub,2013-07-12 07:53:00,
2013-07-12 03:58:00,71.6,64.8,29.99,North,359,0.0,0.0,79,0.00,,,0.00,meteohub,2013-07-12 07:58:00,
2013-07-12 04:03:00,71.8,64.9,29.99,North,0,0.0,0.0,79,0.00,,,0.00,meteohub,2013-07-12 08:03:00,
2013-07-12 04:08:00,71.8,64.9,29.99,NE,44,0.0,0.0,79,0.00,,,0.00,meteohub,2013-07-12 08:08:00,
2013-07-12 04:13:00,72.0,64.8,29.99,NE,44,0.0,0.0,78,0.00,,,0.00,meteohub,2013-07-12 08:13:00,
2013-07-12 04:18:00,72.0,64.8,29.99,NE,44,0.0,0.0,78,0.00,,,0.00,meteohub,2013-07-12 08:18:00,
2013-07-12 04:23:00,72.1,64.9,29.98,NE,42,0.0,0.0,78,0.00,,,0.00,meteohub,2013-07-12 08:23:00,
2013-07-12 04:28:00,72.1,64.9,29.98,NE,39,0.0,0.0,78,0.00,,,0.00,meteohub,2013-07-12 08:28:00,
2013-07-12 04:33:00,72.1,64.9,29.98,NE,53,0.0,0.0,78,0.00,,,0.00,meteohub,2013-07-12 08:33:00,
2013-07-12 04:38:00,72.0,64.8,29.99,ENE,57,0.0,0.0,78,0.00,,,0.00,meteohub,2013-07-12 08:38:00,
2013-07-12 04:43:00,72.0,64.8,29.99,NE,44,0.0,0.0,78,0.00,,,0.00,meteohub,2013-07-12 08:43:00,
2013-07-12 04:48:00,72.0,64.8,29.99,NE,49,2.0,2.0,78,0.00,,,0.00,meteohub,2013-07-12 08:48:00,
2013-07-12 04:53:00,72.0,64.8,29.99,NNE,22,1.0,2.0,78,0.00,,,0.00,meteohub,2013-07-12 08:53:00,
2013-07-12 04:58:00,71.8,64.6,29.99,NE,38,0.0,2.0,78,0.00,,,0.00,meteohub,2013-07-12 08:58:00,
2013-07-12 05:03:00,71.8,64.6,29.99,NNE,32,1.0,2.0,78,0.00,,,0.00,meteohub,2013-07-12 09:03:00,
2013-07-12 05:08:00,71.8,64.9,29.99,NNE,29,0.0,2.0,79,0.00,,,0.00,meteohub,2013-07-12 09:08:00,
2013-07-12 05:13:00,71.6,64.8,29.99,NNE,25,0.0,2.0,79,0.00,,,0.00,meteohub,2013-07-12 09:13:00,
2013-07-12 05:18:00,71.6,64.8,29.99,NE,46,2.0,2.0,79,0.00,,,0.00,meteohub,2013-07-12 09:18:00,
2013-07-12 05:23:00,71.6,64.8,29.99,NNE,33,2.0,3.0,79,0.00,,,0.00,meteohub,2013-07-12 09:23:00,
2013-07-12 05:28:00,71.6,64.8,29.99,ENE,64,1.0,3.0,79,0.00,,,0.00,meteohub,2013-07-12 09:28:00,
2013-07-12 05:33:00,71.8,64.6,29.99,NE,46,2.0,3.0,78,0.00,,,0.00,meteohub,2013-07-12 09:33:00,
2013-07-12 05:38:00,71.8,64.6,30.00,NE,35,1.0,3.0,78,0.00,,,0.00,meteohub,2013-07-12 09:38:00,
2013-07-12 05:43:00,71.8,64.6,30.00,ENE,63,0.0,4.0,78,0.00,,,0.00,meteohub,2013-07-12 09:43:00,
2013-07-12 05:48:00,71.8,64.6,30.00,NE,55,1.0,4.0,78,0.00,,,0.00,meteohub,2013-07-12 09:48:00,
2013-07-12 05:53:00,71.8,64.6,30.01,NE,50,1.0,4.0,78,0.00,,,0.00,meteohub,2013-07-12 09:53:00,
2013-07-12 05:58:00,72.0,64.8,30.01,NE,37,1.0,3.0,78,0.00,,,0.00,meteohub,2013-07-12 09:58:00,
2013-07-12 06:03:00,72.0,64.8,30.01,NNE,30,1.0,3.0,78,0.00,,,0.00,meteohub,2013-07-12 10:03:00,
2013-07-12 06:08:00,72.0,64.8,30.01,NE,40,1.0,3.0,78,0.00,,,0.00,meteohub,2013-07-12 10:08:00,
2013-07-12 06:13:00,72.0,64.8,30.01,ENE,64,3.0,3.0,78,0.00,,,0.00,meteohub,2013-07-12 10:13:00,
2013-07-12 06:18:00,72.0,64.8,30.01,NE,50,0.0,3.0,78,0.00,,,0.00,meteohub,2013-07-12 10:18:00,
2013-07-12 06:24:00,72.0,64.8,30.01,NE,51,1.0,3.0,78,0.00,,,0.00,meteohub,2013-07-12 10:24:00,
2013-07-12 06:29:00,72.0,64.8,30.01,NE,46,1.0,3.0,78,0.00,,,0.00,meteohub,2013-07-12 10:29:00,
2013-07-12 06:34:00,72.0,64.8,30.01,NE,55,1.0,2.0,78,0.00,,,0.00,meteohub,2013-07-12 10:34:00,
2013-07-12 06:39:00,72.0,64.8,30.01,NE,47,1.0,2.0,78,0.00,,,0.00,meteohub,2013-07-12 10:39:00,
2013-07-12 06:44:00,72.0,64.8,30.01,ENE,63,1.0,3.0,78,0.00,,,0.00,meteohub,2013-07-12 10:44:00,
2013-07-12 06:49:00,72.1,64.9,30.01,NE,46,1.0,3.0,78,0.00,,,0.00,meteohub,2013-07-12 10:49:00,
2013-07-12 06:54:00,72.1,64.9,30.01,NE,52,0.0,3.0,78,0.00,,,0.00,meteohub,2013-07-12 10:54:00,
2013-07-12 06:59:00,72.1,64.9,30.01,NE,34,1.0,4.0,78,0.00,,,0.00,meteohub,2013-07-12 10:59:00,
2013-07-12 07:04:00,72.3,65.1,30.02,NE,49,0.0,4.0,78,0.00,,,0.00,meteohub,2013-07-12 11:04:00,
2013-07-12 07:09:00,72.3,64.8,30.02,NE,34,0.0,4.0,77,0.00,,,0.00,meteohub,2013-07-12 11:09:00,
2013-07-12 07:14:00,72.3,64.8,30.02,NE,37,3.0,3.0,77,0.00,,,0.00,meteohub,2013-07-12 11:14:00,
2013-07-12 07:19:00,72.7,65.1,30.02,NE,55,3.0,4.0,77,0.00,,,0.00,meteohub,2013-07-12 11:19:00,
2013-07-12 07:24:00,72.7,65.1,30.02,NNE,23,3.0,4.0,77,0.00,,,0.00,meteohub,2013-07-12 11:24:00,
2013-07-12 07:29:00,72.7,65.1,30.02,ENE,57,0.0,4.0,77,0.00,,,0.00,meteohub,2013-07-12 11:29:00,
2013-07-12 07:34:00,72.9,65.3,30.02,ENE,57,1.0,4.0,77,0.00,,,0.00,meteohub,2013-07-12 11:34:00,
2013-07-12 07:39:00,72.9,65.3,30.02,ENE,57,1.0,3.0,77,0.00,,,0.00,meteohub,2013-07-12 11:39:00,
2013-07-12 07:44:00,72.9,65.3,30.02,ENE,68,0.0,3.0,77,0.00,,,0.00,meteohub,2013-07-12 11:44:00,
2013-07-12 07:49:00,73.0,65.5,30.02,NE,42,2.0,4.0,77,0.00,,,0.00,meteohub,2013-07-12 11:49:00,
2013-07-12 07:54:00,73.0,65.5,30.02,NE,44,1.0,4.0,77,0.00,,,0.00,meteohub,2013-07-12 11:54:00,
2013-07-12 07:59:00,73.0,64.9,30.02,NE,50,1.0,4.0,76,0.00,,,0.00,meteohub,2013-07-12 11:59:00,
2013-07-12 08:04:00,73.2,65.1,30.02,NE,44,2.0,3.0,76,0.00,,,0.00,meteohub,2013-07-12 12:04:00,
2013-07-12 08:09:00,73.2,65.1,30.03,NE,46,4.0,4.0,76,0.00,,,0.00,meteohub,2013-07-12 12:09:00,
2013-07-12 08:14:00,73.2,65.1,30.03,NE,51,2.0,4.0,76,0.00,,,0.00,meteohub,2013-07-12 12:14:00,
2013-07-12 08:19:00,73.4,65.3,30.03,NE,56,2.0,4.0,76,0.00,,,0.00,meteohub,2013-07-12 12:19:00,
2013-07-12 08:24:00,73.6,65.5,30.03,ENE,65,1.0,4.0,76,0.00,,,0.00,meteohub,2013-07-12 12:24:00,
2013-07-12 08:29:00,73.6,65.5,30.03,NNE,23,2.0,6.0,76,0.00,,,0.00,meteohub,2013-07-12 12:29:00,
2013-07-12 08:34:00,73.8,65.7,30.03,ENE,64,1.0,6.0,76,0.00,,,0.00,meteohub,2013-07-12 12:34:00,
2013-07-12 08:39:00,73.9,65.8,30.03,NE,34,4.0,6.0,76,0.00,,,0.00,meteohub,2013-07-12 12:39:00,
2013-07-12 08:44:00,74.1,66.0,30.04,NE,41,1.0,5.0,76,0.00,,,0.00,meteohub,2013-07-12 12:44:00,
2013-07-12 08:49:00,73.9,65.8,30.04,North,359,4.0,5.0,76,0.00,,,0.00,meteohub,2013-07-12 12:49:00,
2013-07-12 08:54:00,74.1,66.0,30.04,NE,40,2.0,5.0,76,0.00,,,0.00,meteohub,2013-07-12 12:54:00,
2013-07-12 08:59:00,74.5,66.4,30.04,NE,46,2.0,5.0,76,0.00,,,0.00,meteohub,2013-07-12 12:59:00,
2013-07-12 09:04:00,74.8,66.4,30.04,NE,46,3.0,5.0,75,0.00,,,0.00,meteohub,2013-07-12 13:04:00,
2013-07-12 09:09:00,74.8,66.0,30.04,NE,56,2.0,7.0,74,0.00,,,0.00,meteohub,2013-07-12 13:09:00,
2013-07-12 09:14:00,75.0,66.2,30.04,NE,41,3.0,7.0,74,0.00,,,0.00,meteohub,2013-07-12 13:14:00,
2013-07-12 09:19:00,75.4,66.6,30.04,ENE,76,2.0,7.0,74,0.00,,,0.00,meteohub,2013-07-12 13:19:00,
2013-07-12 09:24:00,75.6,66.7,30.04,NNE,32,3.0,7.0,74,0.00,,,0.00,meteohub,2013-07-12 13:24:00,
2013-07-12 09:29:00,75.7,66.9,30.05,ENE,57,0.0,6.0,74,0.00,,,0.00,meteohub,2013-07-12 13:29:00,
2013-07-12 09:34:00,75.9,67.1,30.05,NNE,13,2.0,6.0,74,0.00,,,0.00,meteohub,2013-07-12 13:34:00,
2013-07-12 09:39:00,75.9,66.6,30.04,NE,50,2.0,6.0,73,0.00,,,0.00,meteohub,2013-07-12 13:39:00,
2013-07-12 09:44:00,75.9,66.6,30.04,ENE,67,1.0,6.0,73,0.00,,,0.00,meteohub,2013-07-12 13:44:00,
2013-07-12 09:49:00,75.9,67.1,30.05,NNE,22,2.0,6.0,74,0.00,,,0.00,meteohub,2013-07-12 13:49:00,
2013-07-12 09:54:00,76.1,67.3,30.04,NE,39,0.0,6.0,74,0.00,,,0.00,meteohub,2013-07-12 13:54:00,
2013-07-12 09:59:00,76.3,67.5,30.04,ENE,65,1.0,5.0,74,0.00,,,0.00,meteohub,2013-07-12 13:59:00,
2013-07-12 10:04:00,76.3,67.5,30.04,NE,53,4.0,4.0,74,0.00,,,0.00,meteohub,2013-07-12 14:04:00,
2013-07-12 10:09:00,76.3,67.5,30.04,ENE,75,2.0,5.0,74,0.00,,,0.00,meteohub,2013-07-12 14:09:00,
2013-07-12 10:14:00,76.5,67.1,30.04,NE,53,2.0,5.0,73,0.00,,,0.00,meteohub,2013-07-12 14:14:00,
2013-07-12 10:19:00,76.5,67.6,30.04,ENE,61,1.0,6.0,74,0.00,,,0.00,meteohub,2013-07-12 14:19:00,
2013-07-12 10:24:00,76.6,67.3,30.05,NE,46,2.0,6.0,73,0.00,,,0.00,meteohub,2013-07-12 14:24:00,
2013-07-12 10:29:00,76.8,67.5,30.05,NE,37,4.0,6.0,73,0.00,,,0.00,meteohub,2013-07-12 14:29:00,
2013-07-12 10:34:00,76.8,67.1,30.05,NE,51,4.0,5.0,72,0.00,,,0.00,meteohub,2013-07-12 14:34:00,
2013-07-12 10:39:00,77.2,67.8,30.05,NNE,25,1.0,5.0,73,0.00,,,0.00,meteohub,2013-07-12 14:39:00,
2013-07-12 10:44:00,77.5,68.2,30.05,ENE,60,1.0,5.0,73,0.00,,,0.00,meteohub,2013-07-12 14:44:00,
2013-07-12 10:49:00,77.7,68.0,30.05,East,89,2.0,5.0,72,0.00,,,0.00,meteohub,2013-07-12 14:49:00,
2013-07-12 10:54:00,77.9,68.5,30.05,East,87,1.0,4.0,73,0.00,,,0.00,meteohub,2013-07-12 14:54:00,
2013-07-12 10:59:00,77.9,68.5,30.05,NE,43,1.0,4.0,73,0.00,,,0.00,meteohub,2013-07-12 14:59:00,
2013-07-12 11:04:00,77.7,68.0,30.05,ENE,72,2.0,5.0,72,0.00,,,0.00,meteohub,2013-07-12 15:04:00,
2013-07-12 11:09:00,77.7,68.0,30.06,ENE,71,0.0,5.0,72,0.00,,,0.00,meteohub,2013-07-12 15:09:00,
2013-07-12 11:14:00,77.9,68.2,30.06,ENE,57,1.0,5.0,72,0.00,,,0.00,meteohub,2013-07-12 15:14:00,
2013-07-12 11:19:00,77.7,68.4,30.06,ENE,68,1.0,4.0,73,0.00,,,0.00,meteohub,2013-07-12 15:19:00,
2013-07-12 11:24:00,77.7,68.7,30.06,ENE,78,1.0,3.0,74,0.00,,,0.00,meteohub,2013-07-12 15:24:00,
2013-07-12 11:29:00,77.5,68.5,30.06,NNE,33,2.0,3.0,74,0.00,,,0.00,meteohub,2013-07-12 15:29:00,
2013-07-12 11:34:00,77.2,68.2,30.06,East,86,1.0,4.0,74,0.00,,,0.00,meteohub,2013-07-12 15:34:00,
2013-07-12 11:39:00,76.8,68.4,30.06,ENE,58,1.0,4.0,75,0.00,,,0.00,meteohub,2013-07-12 15:39:00,
2013-07-12 11:44:00,76.8,68.4,30.06,East,96,0.0,4.0,75,0.00,,,0.00,meteohub,2013-07-12 15:44:00,
2013-07-12 11:49:00,76.6,68.5,30.06,NE,44,0.0,3.0,76,0.00,,,0.00,meteohub,2013-07-12 15:49:00,
2013-07-12 11:54:00,76.6,68.2,30.06,NE,38,2.0,3.0,75,0.00,,,0.00,meteohub,2013-07-12 15:54:00,
2013-07-12 11:59:00,76.6,68.2,30.06,ENE,58,1.0,3.0,75,0.00,,,0.00,meteohub,2013-07-12 15:59:00,
2013-07-12 12:04:00,76.6,68.2,30.06,East,81,1.0,3.0,75,0.00,,,0.00,meteohub,2013-07-12 16:04:00,
2013-07-12 12:10:00,76.6,68.5,30.06,NE,38,1.0,3.0,76,0.00,,,0.00,meteohub,2013-07-12 16:10:00,
2013-07-12 12:15:00,76.8,68.7,30.06,ENE,58,2.0,3.0,76,0.00,,,0.00,meteohub,2013-07-12 16:15:00,
2013-07-12 12:19:00,76.8,68.7,30.06,East,83,1.0,4.0,76,0.00,,,0.00,meteohub,2013-07-12 16:19:00,
2013-07-12 12:25:00,76.8,68.7,30.06,East,88,0.0,4.0,76,0.00,,,0.00,meteohub,2013-07-12 16:25:00,
2013-07-12 12:30:00,76.8,68.7,30.06,ENE,63,1.0,4.0,76,0.00,,,0.00,meteohub,2013-07-12 16:30:00,
2013-07-12 12:35:00,76.8,68.4,30.06,NNE,33,0.0,3.0,75,0.00,,,0.00,meteohub,2013-07-12 16:35:00,
2013-07-12 12:40:00,77.0,68.9,30.06,ENE,70,0.0,3.0,76,0.00,,,0.00,meteohub,2013-07-12 16:40:00,
2013-07-12 12:45:00,77.0,68.9,30.06,East,84,1.0,4.0,76,0.00,,,0.00,meteohub,2013-07-12 16:45:00,
2013-07-12 12:50:00,76.8,68.7,30.06,ESE,108,1.0,4.0,76,0.00,,,0.00,meteohub,2013-07-12 16:50:00,
2013-07-12 12:55:00,76.8,68.7,30.06,ESE,103,1.0,4.0,76,0.00,,,0.00,meteohub,2013-07-12 16:55:00,
2013-07-12 13:00:00,76.6,68.5,30.06,NNE,18,2.0,3.0,76,0.00,,,0.00,meteohub,2013-07-12 17:00:00,
2013-07-12 13:05:00,76.6,68.5,30.06,ENE,59,2.0,3.0,76,0.00,,,0.00,meteohub,2013-07-12 17:05:00,
2013-07-12 13:10:00,76.6,68.9,30.06,ENE,77,1.0,3.0,77,0.00,,,0.00,meteohub,2013-07-12 17:10:00,
2013-07-12 13:15:00,76.8,69.1,30.06,East,82,0.0,3.0,77,0.00,,,0.00,meteohub,2013-07-12 17:15:00,
2013-07-12 13:20:00,76.6,68.9,30.06,NE,53,2.0,3.0,77,0.00,,,0.00,meteohub,2013-07-12 17:20:00,
2013-07-12 13:25:00,76.6,68.9,30.06,ENE,72,1.0,4.0,77,0.00,,,0.00,meteohub,2013-07-12 17:25:00,
2013-07-12 13:30:00,76.6,68.9,30.06,ENE,72,0.0,4.0,77,0.00,,,0.00,meteohub,2013-07-12 17:30:00,
2013-07-12 13:35:00,76.5,69.1,30.06,East,80,0.0,4.0,78,0.00,,,0.00,meteohub,2013-07-12 17:35:00,
2013-07-12 13:40:00,76.3,69.3,30.06,North,6,2.0,4.0,79,0.00,,,0.00,meteohub,2013-07-12 17:40:00,
2013-07-12 13:45:00,75.9,69.3,30.06,ENE,74,1.0,4.0,80,0.00,,,0.00,meteohub,2013-07-12 17:45:00,
2013-07-12 13:50:00,75.7,69.1,30.06,ENE,60,0.0,4.0,80,0.00,,,0.00,meteohub,2013-07-12 17:50:00,
2013-07-12 13:56:00,75.7,69.4,30.06,ENE,59,1.0,4.0,81,0.00,,,0.00,meteohub,2013-07-12 17:56:00,
2013-07-12 14:01:00,75.7,69.4,30.06,East,87,0.0,4.0,81,0.00,,,0.00,meteohub,2013-07-12 18:01:00,
2013-07-12 14:06:00,75.7,69.4,30.06,ENE,75,0.0,4.0,81,0.00,,,0.00,meteohub,2013-07-12 18:06:00,
2013-07-12 14:11:00,75.9,69.6,30.06,ENE,60,2.0,4.0,81,0.00,,,0.00,meteohub,2013-07-12 18:11:00,
2013-07-12 14:16:00,75.7,69.1,30.07,ENE,65,0.0,3.0,80,0.00,,,0.00,meteohub,2013-07-12 18:16:00,
2013-07-12 14:21:00,75.6,69.3,30.07,NE,46,2.0,3.0,81,0.00,,,0.00,meteohub,2013-07-12 18:21:00,
2013-07-12 14:27:00,75.6,69.3,30.06,NE,40,1.0,3.0,81,0.00,,,0.00,meteohub,2013-07-12 18:27:00,
2013-07-12 14:32:00,75.4,69.1,30.06,NE,50,2.0,4.0,81,0.00,,,0.00,meteohub,2013-07-12 18:32:00,
2013-07-12 14:37:00,75.4,69.1,30.06,NNE,16,4.0,4.0,81,0.00,,,0.00,meteohub,2013-07-12 18:37:00,
2013-07-12 14:42:00,75.0,68.7,30.06,NE,39,2.0,4.0,81,0.00,,,0.00,meteohub,2013-07-12 18:42:00,
2013-07-12 14:47:00,75.0,69.1,30.06,NE,49,3.0,4.0,82,0.00,,,0.00,meteohub,2013-07-12 18:47:00,
2013-07-12 14:53:00,75.0,69.4,30.06,ENE,63,1.0,4.0,83,0.00,,,0.00,meteohub,2013-07-12 18:53:00,
2013-07-12 14:58:00,75.0,69.1,30.06,NE,51,2.0,4.0,82,0.00,,,0.00,meteohub,2013-07-12 18:58:00,
2013-07-12 15:03:00,75.0,68.7,30.06,NE,46,4.0,4.0,81,0.00,,,0.00,meteohub,2013-07-12 19:03:00,
2013-07-12 15:08:00,75.0,68.7,30.06,ENE,63,2.0,5.0,81,0.00,,,0.00,meteohub,2013-07-12 19:08:00,
2013-07-12 15:13:00,75.0,68.7,30.06,NE,56,2.0,5.0,81,0.00,,,0.00,meteohub,2013-07-12 19:13:00,
2013-07-12 15:18:00,75.2,68.9,30.06,NE,43,6.0,6.0,81,0.00,,,0.00,meteohub,2013-07-12 19:18:00,
2013-07-12 15:23:00,75.4,68.7,30.06,ENE,60,2.0,7.0,80,0.00,,,0.00,meteohub,2013-07-12 19:23:00,
2013-07-12 15:29:00,75.4,68.7,30.06,NE,46,3.0,7.0,80,0.00,,,0.00,meteohub,2013-07-12 19:29:00,
2013-07-12 15:34:00,75.2,68.9,30.06,NE,56,2.0,7.0,81,0.00,,,0.00,meteohub,2013-07-12 19:34:00,
2013-07-12 15:40:00,75.0,69.1,30.05,NE,50,3.0,6.0,82,0.00,,,0.00,meteohub,2013-07-12 19:40:00,
2013-07-12 15:45:00,74.7,69.1,30.06,NE,55,1.0,5.0,83,0.00,,,0.00,meteohub,2013-07-12 19:45:00,
2013-07-12 15:50:00,74.1,69.3,30.06,NE,50,2.0,4.0,85,0.00,,,0.00,meteohub,2013-07-12 19:50:00,
2013-07-12 15:55:00,73.6,69.4,30.05,NE,40,1.0,4.0,87,0.02,,,0.02,meteohub,2013-07-12 19:55:00,
2013-07-12 16:00:00,73.2,69.4,30.05,NNE,19,1.0,4.0,88,0.02,,,0.02,meteohub,2013-07-12 20:00:00,
2013-07-12 16:05:00,73.0,69.6,30.05,ENE,58,0.0,4.0,89,0.02,,,0.02,meteohub,2013-07-12 20:05:00,
2013-07-12 16:10:00,72.9,69.8,30.05,NE,44,0.0,4.0,90,0.03,,,0.02,meteohub,2013-07-12 20:10:00,
2013-07-12 16:16:00,72.9,69.8,30.05,ENE,57,1.0,3.0,90,0.03,,,0.03,meteohub,2013-07-12 20:16:00,
2013-07-12 16:21:00,72.7,70.0,30.05,NE,53,1.0,2.0,91,0.03,,,0.03,meteohub,2013-07-12 20:21:00,
2013-07-12 16:26:00,72.9,70.2,30.05,ENE,71,0.0,2.0,91,0.03,,,0.03,meteohub,2013-07-12 20:26:00,
2013-07-12 16:31:00,72.9,70.2,30.06,ENE,70,0.0,2.0,91,0.03,,,0.03,meteohub,2013-07-12 20:31:00,
2013-07-12 16:36:00,72.9,70.2,30.06,ENE,71,1.0,2.0,91,0.03,,,0.03,meteohub,2013-07-12 20:36:00,
2013-07-12 16:42:00,72.9,70.2,30.06,ENE,70,0.0,1.0,91,0.05,,,0.05,meteohub,2013-07-12 20:42:00,
2013-07-12 16:47:00,72.7,70.2,30.06,SE,135,0.0,1.0,92,0.06,,,0.07,meteohub,2013-07-12 20:47:00,
2013-07-12 16:52:00,72.7,70.2,30.06,SE,135,0.0,1.0,92,0.07,,,0.09,meteohub,2013-07-12 20:52:00,
2013-07-12 16:57:00,72.3,69.8,30.06,SE,136,0.0,1.0,92,0.10,,,0.11,meteohub,2013-07-12 20:57:00,
2013-07-12 17:02:00,72.3,70.2,30.07,SE,136,0.0,0.0,93,0.11,,,0.13,meteohub,2013-07-12 21:02:00,
2013-07-12 17:07:00,72.3,70.2,30.06,ESE,110,0.0,1.0,93,0.16,,,0.19,meteohub,2013-07-12 21:07:00,
2013-07-12 17:12:00,72.3,70.5,30.07,ESE,110,0.0,1.0,94,0.22,,,0.25,meteohub,2013-07-12 21:12:00,
2013-07-12 17:17:00,72.1,70.3,30.07,East,89,0.0,1.0,94,0.24,,,0.27,meteohub,2013-07-12 21:17:00,
2013-07-12 17:22:00,72.0,70.2,30.07,East,89,1.0,1.0,94,0.28,,,0.30,meteohub,2013-07-12 21:22:00,
2013-07-12 17:27:00,71.8,70.0,30.07,East,85,1.0,1.0,94,0.32,,,0.35,meteohub,2013-07-12 21:27:00,
2013-07-12 17:32:00,71.6,70.2,30.07,SE,145,0.0,2.0,95,0.34,,,0.37,meteohub,2013-07-12 21:32:00,
2013-07-12 17:38:00,71.4,70.0,30.08,East,82,0.0,2.0,95,0.36,,,0.39,meteohub,2013-07-12 21:38:00,
2013-07-12 17:43:00,71.4,70.0,30.08,East,79,0.0,2.0,95,0.37,,,0.42,meteohub,2013-07-12 21:43:00,
2013-07-12 17:48:00,71.2,69.8,30.08,East,80,0.0,2.0,95,0.37,,,0.44,meteohub,2013-07-12 21:48:00,
2013-07-12 17:53:00,71.2,69.8,30.08,ENE,76,0.0,2.0,95,0.36,,,0.45,meteohub,2013-07-12 21:53:00,
2013-07-12 17:58:00,71.1,69.6,30.08,ENE,72,1.0,2.0,95,0.35,,,0.47,meteohub,2013-07-12 21:58:00,
2013-07-12 18:04:00,71.1,69.8,30.08,NNW,332,0.0,2.0,96,0.35,,,0.49,meteohub,2013-07-12 22:04:00,
2013-07-12 18:09:00,71.1,69.8,30.08,ENE,63,0.0,2.0,96,0.33,,,0.53,meteohub,2013-07-12 22:09:00,
2013-07-12 18:14:00,71.1,69.8,30.08,NE,46,0.0,2.0,96,0.32,,,0.57,meteohub,2013-07-12 22:14:00,
2013-07-12 18:19:00,71.1,69.8,30.08,ESE,105,0.0,2.0,96,0.31,,,0.58,meteohub,2013-07-12 22:19:00,
2013-07-12 18:24:00,71.1,69.8,30.08,ESE,105,0.0,2.0,96,0.28,,,0.59,meteohub,2013-07-12 22:24:00,
2013-07-12 18:29:00,71.1,69.8,30.08,ESE,121,0.0,2.0,96,0.25,,,0.60,meteohub,2013-07-12 22:29:00,
2013-07-12 18:34:00,71.1,69.8,30.08,East,95,1.0,1.0,96,0.24,,,0.61,meteohub,2013-07-12 22:34:00,
2013-07-12 18:40:00,70.9,69.6,30.08,East,84,0.0,2.0,96,0.21,,,0.61,meteohub,2013-07-12 22:40:00,
2013-07-12 18:45:00,71.1,69.8,30.08,East,91,1.0,3.0,96,0.18,,,0.62,meteohub,2013-07-12 22:45:00,
2013-07-12 18:50:00,71.1,69.8,30.08,ESE,105,0.0,3.0,96,0.17,,,0.62,meteohub,2013-07-12 22:50:00,
2013-07-12 18:55:00,70.9,69.6,30.08,East,82,0.0,3.0,96,0.17,,,0.64,meteohub,2013-07-12 22:55:00,
2013-07-12 19:01:00,70.9,69.6,30.08,ESE,108,0.0,3.0,96,0.17,,,0.66,meteohub,2013-07-12 23:01:00,
2013-07-12 19:06:00,70.7,69.8,30.08,SE,128,1.0,3.0,97,0.13,,,0.67,meteohub,2013-07-12 23:06:00,
2013-07-12 19:11:00,70.5,69.3,30.08,East,101,0.0,3.0,96,0.11,,,0.68,meteohub,2013-07-12 23:11:00,
2013-07-12 19:16:00,70.5,69.6,30.09,ESE,116,0.0,3.0,97,0.10,,,0.68,meteohub,2013-07-12 23:16:00,
2013-07-12 19:22:00,70.5,69.6,30.09,ESE,108,0.0,2.0,97,0.09,,,0.68,meteohub,2013-07-12 23:22:00,
2013-07-12 19:27:00,70.5,69.6,30.08,East,82,1.0,2.0,97,0.08,,,0.68,meteohub,2013-07-12 23:27:00,
2013-07-12 19:32:00,70.5,69.6,30.08,ESE,120,0.0,2.0,97,0.07,,,0.68,meteohub,2013-07-12 23:32:00,
2013-07-12 19:37:00,70.3,69.4,30.08,ESE,112,0.0,2.0,97,0.08,,,0.69,meteohub,2013-07-12 23:37:00,
2013-07-12 19:42:00,70.5,69.6,30.08,East,95,0.0,2.0,97,0.08,,,0.69,meteohub,2013-07-12 23:42:00,
2013-07-12 19:47:00,70.5,69.6,30.08,ESE,112,0.0,2.0,97,0.07,,,0.69,meteohub,2013-07-12 23:47:00,
2013-07-12 19:52:00,70.3,69.4,30.08,ENE,57,2.0,2.0,97,0.07,,,0.69,meteohub,2013-07-12 23:52:00,
2013-07-12 19:57:00,70.3,69.4,30.08,ESE,103,1.0,2.0,97,0.06,,,0.70,meteohub,2013-07-12 23:57:00,
2013-07-12 20:02:00,70.5,69.6,30.08,East,88,0.0,2.0,97,0.05,,,0.71,meteohub,2013-07-13 00:02:00,
2013-07-12 20:07:00,70.5,69.6,30.08,ENE,75,1.0,2.0,97,0.05,,,0.72,meteohub,2013-07-13 00:07:00,
2013-07-12 20:12:00,70.5,69.6,30.09,SE,131,0.0,3.0,97,0.04,,,0.72,meteohub,2013-07-13 00:12:00,
2013-07-12 20:17:00,70.5,69.6,30.09,East,85,1.0,3.0,97,0.05,,,0.73,meteohub,2013-07-13 00:17:00,
2013-07-12 20:22:00,70.7,69.8,30.09,East,79,0.0,4.0,97,0.05,,,0.73,meteohub,2013-07-13 00:22:00,
2013-07-12 20:27:00,70.7,69.8,30.09,East,85,2.0,4.0,97,0.05,,,0.73,meteohub,2013-07-13 00:27:00,
2013-07-12 20:32:00,70.5,69.6,30.09,ENE,74,2.0,4.0,97,0.04,,,0.73,meteohub,2013-07-13 00:32:00,
2013-07-12 20:37:00,70.5,69.6,30.09,East,93,0.0,4.0,97,0.04,,,0.73,meteohub,2013-07-13 00:37:00,
2013-07-12 20:43:00,70.5,69.6,30.09,East,93,0.0,4.0,97,0.04,,,0.73,meteohub,2013-07-13 00:43:00,
2013-07-12 20:48:00,70.5,69.6,30.09,East,81,1.0,4.0,97,0.04,,,0.73,meteohub,2013-07-13 00:48:00,
2013-07-12 20:53:00,70.3,69.4,30.09,ENE,63,2.0,3.0,97,0.04,,,0.73,meteohub,2013-07-13 00:53:00,
2013-07-12 20:58:00,70.3,69.4,30.09,East,82,2.0,4.0,97,0.03,,,0.73,meteohub,2013-07-13 00:58:00,
2013-07-12 21:03:00,70.3,69.4,30.10,NE,55,2.0,4.0,97,0.02,,,0.73,meteohub,2013-07-13 01:03:00,
2013-07-12 21:08:00,70.2,69.3,30.10,East,82,1.0,4.0,97,0.01,,,0.73,meteohub,2013-07-13 01:08:00,
2013-07-12 21:13:00,70.2,69.3,30.10,NE,55,2.0,4.0,97,0.01,,,0.73,meteohub,2013-07-13 01:13:00,
2013-07-12 21:18:00,70.2,69.3,30.10,NE,56,2.0,5.0,97,0.00,,,0.73,meteohub,2013-07-13 01:18:00,
2013-07-12 21:23:00,70.2,69.3,30.10,NNE,25,2.0,5.0,97,0.00,,,0.73,meteohub,2013-07-13 01:23:00,
2013-07-12 21:29:00,70.2,69.3,30.11,East,80,1.0,5.0,97,0.00,,,0.73,meteohub,2013-07-13 01:29:00,
2013-07-12 21:34:00,70.2,69.3,30.11,ENE,67,1.0,4.0,97,0.00,,,0.73,meteohub,2013-07-13 01:34:00,
2013-07-12 21:39:00,70.0,69.1,30.11,ENE,77,2.0,5.0,97,0.00,,,0.73,meteohub,2013-07-13 01:39:00,
2013-07-12 21:44:00,69.6,68.7,30.11,WNW,289,1.0,6.0,97,0.00,,,0.73,meteohub,2013-07-13 01:44:00,
2013-07-12 21:49:00,69.6,68.7,30.11,NE,50,1.0,6.0,97,0.00,,,0.73,meteohub,2013-07-13 01:49:00,
2013-07-12 21:55:00,69.6,68.7,30.11,NE,39,2.0,6.0,97,0.00,,,0.73,meteohub,2013-07-13 01:55:00,
2013-07-12 22:00:00,69.6,68.7,30.11,NE,52,2.0,5.0,97,0.01,,,0.74,meteohub,2013-07-13 02:00:00,
2013-07-12 22:05:00,69.6,68.7,30.11,ENE,57,3.0,4.0,97,0.01,,,0.74,meteohub,2013-07-13 02:05:00,
2013-07-12 22:11:00,69.4,68.5,30.11,NE,34,0.0,5.0,97,0.01,,,0.74,meteohub,2013-07-13 02:11:00,
2013-07-12 22:16:00,69.4,68.5,30.11,West,263,2.0,5.0,97,0.01,,,0.74,meteohub,2013-07-13 02:16:00,
2013-07-12 22:21:00,69.4,68.5,30.11,NE,46,4.0,7.0,97,0.01,,,0.74,meteohub,2013-07-13 02:21:00,
2013-07-12 22:26:00,69.4,68.5,30.11,ENE,68,0.0,7.0,97,0.02,,,0.75,meteohub,2013-07-13 02:26:00,
2013-07-12 22:31:00,69.3,68.4,30.10,ENE,57,0.0,7.0,97,0.02,,,0.75,meteohub,2013-07-13 02:31:00,
2013-07-12 22:36:00,69.4,68.5,30.10,ENE,64,1.0,4.0,97,0.02,,,0.75,meteohub,2013-07-13 02:36:00,
2013-07-12 22:41:00,69.4,68.5,30.11,NE,46,2.0,4.0,97,0.02,,,0.75,meteohub,2013-07-13 02:41:00,
2013-07-12 22:46:00,69.3,68.4,30.11,NE,54,3.0,3.0,97,0.02,,,0.75,meteohub,2013-07-13 02:46:00,
2013-07-12 22:51:00,69.4,68.9,30.11,NNE,20,2.0,3.0,98,0.02,,,0.75,meteohub,2013-07-13 02:51:00,
2013-07-12 22:56:00,69.3,68.4,30.11,East,89,1.0,4.0,97,0.01,,,0.75,meteohub,2013-07-13 02:56:00,
2013-07-12 23:01:00,69.3,68.7,30.11,East,82,0.0,4.0,98,0.01,,,0.75,meteohub,2013-07-13 03:01:00,
2013-07-12 23:07:00,69.4,68.9,30.11,ENE,67,1.0,4.0,98,0.01,,,0.75,meteohub,2013-07-13 03:07:00,
2013-07-12 23:12:00,69.4,68.9,30.12,ENE,63,2.0,3.0,98,0.01,,,0.75,meteohub,2013-07-13 03:12:00,
2013-07-12 23:17:00,69.3,68.7,30.12,ENE,58,1.0,3.0,98,0.01,,,0.75,meteohub,2013-07-13 03:17:00,
2013-07-12 23:22:00,69.4,68.9,30.12,NE,53,2.0,3.0,98,0.01,,,0.75,meteohub,2013-07-13 03:22:00,
2013-07-12 23:27:00,69.4,68.9,30.12,NE,49,0.0,3.0,98,0.01,,,0.76,meteohub,2013-07-13 03:27:00,
2013-07-12 23:32:00,69.4,68.9,30.12,ENE,77,1.0,3.0,98,0.01,,,0.76,meteohub,2013-07-13 03:32:00,
2013-07-12 23:37:00,69.4,68.9,30.12,NE,55,0.0,3.0,98,0.01,,,0.76,meteohub,2013-07-13 03:37:00,
2013-07-12 23:42:00,69.4,68.9,30.12,ENE,67,1.0,2.0,98,0.01,,,0.76,meteohub,2013-07-13 03:42:00,
2013-07-12 23:47:00,69.4,68.9,30.13,ENE,78,1.0,2.0,98,0.01,,,0.76,meteohub,2013-07-13 03:47:00,
2013-07-12 23:52:00,69.4,68.9,30.13,ENE,78,0.0,2.0,98,0.02,,,0.77,meteohub,2013-07-13 03:52:00,
2013-07-12 23:57:00,69.3,68.7,30.13,ENE,63,1.0,2.0,98,0.02,,,0.77,meteohub,2013-07-13 03:57:00,